STARLINK-1212 (45223 NORAD) Tracking and Keplerian Element Data

This shows tracking and keplerian element data for the satellite.

Feedback or suggestion? Click here.




ElementValue
Catalog45223
NameSTARLINK-1212
Epoch Orbit176
Epoch Day193.91667824
Epoch Year2020
RAAN284.7126
Inclination52.9995
Eccentricity0.0001145
Argument of Perigee94.0344
Mean Anonmoly11.0515
Mean Motion15.05586421
Decay Rate-0.0003514
L11 45223U 20012AX 20193.91667824 -.00035140 00000-0 -24041-2 0 9997
L22 45223 52.9995 284.7126 0001145 94.0344 11.0515 15.05586421 1766

Live tracking and technical data element details for STARLINK-1212 (NORAD 45223). STARLINK-1212 can be tracked NOW for your location showing map with azimuth and elevation plus other details from your city location.

Track the satellite on the map from your city or location and see movement details for azimuth, elevation, latitude, longitude, range, height, and movement on the map or in text.







IsCatalogInMostPopularTable: catalog: 45223, numindb: 31
Update: records affected: 1



GetName: 45223 STARLINK-1212

Hit Count: updated at: Mon, 13 Jul 2020 05:47:23 GMT